Regional Weather Roundup
Issued by NWS

Home | Current Version | Previous Version | Graphics & Text | Print | Product List | Glossary On
Versions: 1 2 3 4 5 6 7 8 9 10 11 12 13 14 15 16 17 18 19 20 21 22 23 24 25 26 27 28 29 30 31 32 33 34 35 36 37 38 39 40 41 42 43 44 45 46 47 48 49 50
000
ASUS43 KMPX 271810
RWRMN
WEATHER ROUNDUP FOR MINNESOTA
NATIONAL WEATHER SERVICE TWIN CITIES/CHANHASSEN MN
100 PM CDT SUN JUL 27 2014


NOTE: "FAIR" INDICATES FEW OR NO CLOUDS BELOW 12,000 FEET WITH NO
SIGNIFICANT WEATHER AND/OR OBSTRUCTIONS TO VISIBILITY. N/A MEANS
CURRENT SKY AND/OR WEATHER CONDITIONS ARE NOT AVAILABLE.

MNZ060>063-068>070-271900-
   Twin Cities Metro

CITY           SKY/WX    TMP DP  RH WIND       PRES   REMARKS
TWIN CITIES    PTSUNNY   73  58  59 NW13G23   29.91R
6HR MIN TEMP:  65; 6HR MAX TEMP:  74; 6HR PCP: TRACE;

ST PAUL        LGT RAIN  70  57  63 NW21G30   29.90R
CRYSTAL        PTSUNNY   73  56  54 N14G28    29.90S
BLAINE         PTSUNNY   73  57  56 NW21G28   29.91R
LAKEVILLE      PTSUNNY   68  57  68 NW15G24   29.92R
EDEN PRAIRIE   CLOUDY    72  60  66 NW14G21   29.91R
6HR MIN TEMP:  64; 6HR MAX TEMP:  73; 6HR PCP:  0.01;

SOUTH ST PAUL  PTSUNNY   73  57  58 NW15G22   29.90R
LAKE ELMO      CLOUDY    70  61  73 NW12      29.91R
$$
MNZ001>005-007-008-013>017-022>024-027-028-271900-
   Northwest Minnesota

CITY           SKY/WX    TMP DP  RH WIND       PRES   REMARKS
BEMIDJI        CLOUDY    66  60  80 N17G23    30.03R
HALLOCK        MOSUNNY   64  55  72 N15       30.12R
ROSEAU         MOSUNNY   66  59  77 N9        30.10R
WARROAD        CLOUDY    64  57  77 N12       30.10R
THIEF RVR FALL CLOUDY    63  55  77 N16       30.10R
CROOKSTON      CLOUDY    63  57  82 N17       30.11R
FOSSTON        CLOUDY    64  59  82 N14       30.07R
DETROIT LAKES  CLOUDY    64  59  82 NW15      30.08R
MOORHEAD       CLOUDY    64  61  88 N18       30.11R
PARK RAPIDS    CLOUDY    68  58  70 N14       30.02R
$$
MNZ006-009>011-018-025>026-271900-
   North Central Minnesota

CITY           SKY/WX    TMP DP  RH WIND       PRES   REMARKS
BAUDETTE       CLOUDY    66  56  70 N13       30.08R
FLAG ISLAND    PTSUNNY   64  54  68 N13       30.08R
INTL FALLS     CLOUDY    64  55  72 NE7G17    30.03R
6HR MIN TEMP:  60; 6HR MAX TEMP:  65; 6HR PCP:  0.01;

WASKISH        CLOUDY    64  61  88 N6        30.05R
BIG FORK       PTSUNNY   63  57  82 N7        30.02R
LONGVILLE      PTSUNNY   70  59  68 N12G18    29.99R
GRAND RAPIDS   PTSUNNY   66  57  72 N23       29.98R
CRANE LAKE     CLOUDY    63  55  77 N8        30.02R
ORR            CLOUDY    63  54  72 CALM      29.99R
COOK           CLOUDY    63  55  77 N7        30.00R
$$
MNZ012-019>021-037-271900-
   Northeast Minnesota

CITY           SKY/WX    TMP DP  RH WIND       PRES   REMARKS
DULUTH         LGT RAIN  60  56  86 E16       29.94R
6HR MIN TEMP:  56; 6HR MAX TEMP:  64; 6HR PCP:  0.08;

ELY            CLOUDY    61  55  82 NE8G20    29.97R
HIBBING        CLOUDY    66  57  72 N14G21    29.97R
EVELETH        CLOUDY    63  59  88 N12G17    29.97R
DULUTH HARBOR  CLOUDY    55  54  94 NE10      29.95R
TWO HARBORS    DRIZZLE   59  55  88 NE10G17   29.92R
SILVER BAY     SUNNY     57  57 100 NE8       29.92R FOG
GRAND MARAIS     N/A     66  54  65 NE8G20    29.92R
G MARAIS ARPRT   N/A     61  50  67 N16G24    29.95R
$$
MNZ029>031-032-039>041-046>048-054>057-064-271900-
   West Central Minnesota

CITY           SKY/WX    TMP DP  RH WIND       PRES   REMARKS
FERGUS FALLS   CLOUDY    64  55  72 NW18G26   30.08R
WHEATON        CLOUDY    64  55  72 NW15G24   30.11R
MORRIS         MOSUNNY   66  59  77 NW15G26   30.06R
ALEXANDRIA     PTSUNNY   71  58  63 NW20G30   30.05R
ELBOW LAKE     CLOUDY    64  58  80 NW17      30.07R
WADENA         PTSUNNY   66  57  72 N13G18    30.02R
GLENWOOD       MOSUNNY   70  57  64 NW17G28   30.04R
APPLETON       CLOUDY    68  57  68 NW16G22   30.07R
BENSON         CLOUDY    70  57  64 N23       30.04S
ORTONVILLE     CLOUDY    66  55  68 NW17      30.09R
MADISON        SUNNY     70  59  68 NW18G26   30.08R
WILLMAR        FAIR      72  57  60 NW25G31   30.03R
$$
MNZ033>034-036-042>043-049>051-058-059-271900-
   Central Minnesota

CITY           SKY/WX    TMP DP  RH WIND       PRES   REMARKS
ST CLOUD       CLOUDY    72  58  61 NW10G24   29.95R
6HR MIN TEMP:  66; 6HR MAX TEMP:  74; 6HR PCP: TRACE;

SAUK CENTRE    CLOUDY    70  58  66 NW22G29   30.00R
PAYNESVILLE    MOSUNNY   69  57  65 W17G23    29.99S
AITKIN         MOSUNNY   73  63  68 N14G21    29.94R
PINE RIVER     MOSUNNY   72  61  68 N12G22    30.01S
BRAINERD       PTSUNNY   70  58  65 N21       29.96R
STAPLES        MOSUNNY   66  61  82 N16       30.00R
LONG PRAIRIE   PTSUNNY   64  59  82 NW18      30.01R
LITTLE FALLS   MOSUNNY   70  55  60 N7G20     29.96R
LITCHFIELD     PTSUNNY   72  63  73 NW16G24   29.98R
BUFFALO        CLOUDY    71  56  58 NW13G23   29.96R
MAPLE LAKE     CLOUDY    72  60  66 N18       29.97R
$$
MNZ037-044-045-052-053-271900-
   East Central Minnesota

CITY           SKY/WX    TMP DP  RH WIND       PRES   REMARKS
PRINCETON      PTSUNNY   75  57  53 NW16G22   29.93R
MORA           PTSUNNY   70  57  64 N9G22     29.94R
CAMBRIDGE      MOSUNNY   75  59  57 NW15      29.90R
RUSH CITY      PTSUNNY   71  59  64 N12G21    29.91R
MOOSE LAKE     CLOUDY    61  57  88 NE9G16    29.92R
HINCKLEY       MOCLDY    70  61  73 NW10G20   29.91R
CLOQUET        DRIZZLE   55  54  94 E10G16    29.95R
MCGREGOR       CLOUDY    64  61  88 N9G18     29.95R
$$
MNZ071>073-080-081-089-090-097-098-271900-
   Southwest Minnesota

CITY           SKY/WX    TMP DP  RH WIND       PRES   REMARKS
MONTEVIDEO     CLOUDY    66  57  72 N15G21    30.07R
GRANITE FALLS  CLOUDY    66  58  73 NW18G29   30.06S
CANBY          CLOUDY    69  55  62 NW21G28   30.10R
MARSHALL       CLOUDY    66  54  63 NW18G29   30.06R
REDWOOD FALLS  CLOUDY    69  58  67 NW20G29   30.02R
OLIVIA         PTSUNNY   70  57  64 NW22G31   30.01R
PIPESTONE      CLOUDY    66  55  68 N13G23    30.11R
WINDOM         CLOUDY    66  55  68 NW18G26   30.05R
WORTHINGTON    CLOUDY    66  55  68 NW22G28   30.09R
JACKSON        CLOUDY    66  55  68 NW17G25   30.06R
TRACY          CLOUDY    65  57  75 NW18G26   30.08R
SLAYTON        CLOUDY    65  56  72 NW21G30   30.10R
$$
MNZ065>067-074>077-082>085-091>093-271900-
   South Central Minnesota

CITY           SKY/WX    TMP DP  RH WIND       PRES   REMARKS
MANKATO        CLOUDY    72  55  56 NW22G30   29.96R
NEW ULM        SUNNY     72  61  68 NW20G29   29.98S
ST JAMES       PTSUNNY   70  55  60 W21G29    30.02R
FAIRMONT       CLOUDY    70  55  60 NW24      30.01S
GLENCOE        PTSUNNY   73  57  56 NW15G25   29.95R
FARIBAULT      PTSUNNY   72  55  56 NW10G20   29.93S
OWATONNA       MOSUNNY   72  57  60 NW21      29.93S
WASECA         CLOUDY    66  54  63 NW15G22   29.96S
ALBERT LEA     PTSUNNY   72  57  60 NW15G23   29.95R
$$
MNZ078>079-086>088-094>096-271900-
   Southeast Minnesota

CITY           SKY/WX    TMP DP  RH WIND       PRES   REMARKS
ROCHESTER      MOSUNNY   71  57  61 NW17G28   29.91R
6HR MIN TEMP:  63; 6HR MAX TEMP:  71; 6HR PCP: TRACE;

RED WING       MOSUNNY   70  61  73 NW10G18   29.88S
STANTON        PTSUNNY   70  60  69 N13       29.90R
DODGE CENTER   MOSUNNY   72  57  60 N24G32    29.91S
WINONA         RAIN      70  61  73 NW10      29.86R
AUSTIN         PTSUNNY   70  57  64 NW16G26   29.92S
PRESTON        MOSUNNY   70  63  78 NW16G23   29.90S
$$
ABBREVIATIONS USED IN REMARKS
   TC - TEMPERATURES IN CELSIUS
  WCI - WIND CHILL INDEX
   HX - HEAT INDEX
  VSB - VISIBILITY
$$


USA.gov is the U.S. government's official web portal to all federal, state and local government web resources and services.